Terminal Aerodrome Forecast
Issued by NWS

Home | Current Version | Previous Version | Text Only | Print | Product List | Glossary On
Versions: 1 2 3 4 5 6 7 8 9 10 11 12 13 14 15 16 17 18 19 20 21 22 23 24 25 26 27 28 29 30 31 32 33 34 35 36
000
FTUS46 KOTX 010702 AAA
TAFMWH
TAF AMD
KMWH 010702Z 0107/0206 35005KT P6SM OVC020
     FM010900 35005KT P6SM SCT020 BKN050 OVC070
     FM011200 36005KT P6SM VCSH OVC050
     FM012100 VRB03KT P6SM VCSH SCT030 OVC050
     FM020100 15003KT P6SM SCT030 BKN080=

USA.gov is the U.S. government's official web portal to all federal, state and local government web resources and services.